sat.trackr.live / text

‹ back to catalog

STARLINK-30983

NORAD 58514 · 2023-191G

PAYLOAD ACTIVE UNKNOWN

§ Identity

Operator
Country
US
Launch date
2023-12-07
Launch site
AFETR
Launch vehicle
Mass (kg)
RCS (m²)

Purposes: comms

External: N2YO · Heavens-Above · Gunter

§ Orbital elements

Epoch: 2026-05-25T01:52:46.479072Z

Period
94.27 min
Inclination
43.0058°
Eccentricity
0.0001289
Mean motion
15.27591373 rev/d
Perigee alt
482.1 km
Apogee alt
483.9 km
Semi-major
6,861.2 km
B*
4.9250e-5
RAAN
32.0612°
Arg perigee
271.7875°
Mean anomaly
88.2829°
Rev number
13,680

§ Raw data

STARLINK-309831 58514U 23191G   26145.07831573  .00001094  00000+0  49250-4 0  99982 58514  43.0058  32.0612 0001289 271.7875  88.2829 15.27591373136804

JSON: /api/v1/satellites/58514 · /tle

For live sub-satellite position, see the globe view (requires WebGL).

§ Visibility from observer

Set your observer location to see the next 7 days of passes ≥ 10°. The values pass through the URL so the page stays shareable.

No JS? Fill the form by hand. The geolocation button needs JavaScript.